User: anonymous   Login
Location: Caltech
(34.1382°N, 118.1253°W)
Time: 20:22:45
(UTC-08:00)
Language:

Cosmos-2242 - Orbit

View from above orbital plane
View from above orbital plane
View from above satellite
View from above satellite

Ground track
Ground track

The orbit data is extracted from the following two-line orbital elements,

1 22626U 93024A   17020.15700721  .00000230  00000-0  22562-4 0  9995
2 22626  82.5217 181.3608 0017750 250.7296 109.2001 14.87595053284142
Epoch (UTC): 20 January 2017 03:46:05
Eccentricity: 0.0017750
inclination: 82.5217°
perigee height: 593 km
apogee height: 618 km
right ascension of ascending node: 181.3608°
argument of perigee: 250.7296°
revolutions per day: 14.87595053
mean anomaly at epoch: 109.2001°
orbit number at epoch: 28414

The dashed part of the orbit path shows where the satellite is in the earth's shadow,  

DLR